Flag for United Arab Emirates Weather past 2 weeks in Sharjah, Sharjah, United Arab Emirates

Now
75 °F

Clear.


Feels Like: 78 °F
Forecast: 70 / 81 °F
Wind: 10 mph from West

Location: Sharjah International Airport

Current Time: Mar 4, 2015 at 7:32:22 PM

Latest Report: Mar 4, 2015 at 7:00 PM


Visibility: 10 mi

Pressure: 29.86 "Hg

Humidity: 54%

Dew point: 57 °F

Location of SharjahLocation

Historic Weather in Sharjah — Graph

°F

Sharjah temperature yesterday

Maximum temperature yesterday: 81 °F (at 1:00 PM)
Minimum temperature yesterday: 57 °F (at 3:00 AM)
Average temperature yesterday: 70 °F

Past Weeks' High & Low Weather Summary

 TemperatureHumidityPressure
High95 °F (Feb 19, 2:00 PM)83% (Mar 4, 7:00 AM)30.09 "Hg (Mar 4, 7:00 AM)
Low52 °F (Mar 1, 4:00 AM)8% (Feb 19, 2:00 PM)29.56 "Hg (Feb 21, 7:00 AM)
Average71 °F42%29.91 "Hg
* Reported Feb 17 6:00 PM — Mar 4 6:00 PM, Sharjah, Weather by CustomWeather, © 2015

Note: Actual official high and low records may vary slightly from our data, if they occured in-between our weather recording intervals... More about our weather records

Advertising

Sharjah weather history for previous 24 hours

 ConditionsComfort  
Time TempWeatherWind HumidityBarometerVisibility
6:00 PM
Wed, Mar 4
77 °FSunny.12 mph44%29.86 "Hg10 mi
5:00 PM79 °FSunny.14 mph42%29.86 "Hg10 mi
4:00 PM81 °FSunny.14 mph34%29.83 "Hg10 mi
3:00 PM81 °FSunny.16 mph32%29.83 "Hg10 mi
2:00 PM84 °FSunny.14 mph22%29.86 "Hg10 mi
1:00 PM84 °FSunny.14 mph23%29.89 "Hg10 mi
12:00 PM81 °FSunny.10 mph42%29.92 "Hg10 mi
11:00 AM77 °FSunny.13 mph51%29.95 "Hg10 mi
10:00 AM72 °FSunny.8 mph65%29.95 "Hg10 mi
9:00 AM68 °FSunny.9 mph73%29.95 "Hg10 mi
8:00 AM64 °FClear.10 mph78%29.92 "Hg5 mi
7:00 AM61 °FClear.10 mph83%29.92 "Hg5 mi
6:00 AM63 °FClear.5 mph77%29.92 "Hg10 mi
5:00 AM63 °FClear.9 mph77%29.89 "Hg10 mi
4:00 AM63 °FClear.8 mph77%29.89 "Hg10 mi
3:00 AM64 °FClear.5 mph73%29.89 "Hg10 mi
2:00 AM64 °FClear.5 mph73%29.92 "Hg10 mi
1:00 AM64 °FClear.7 mph73%29.92 "Hg10 mi
12:00 AM68 °FClear.8 mph64%29.92 "Hg10 mi
11:00 PM
Tue, Mar 3
70 °FClear.5 mph64%29.95 "Hg10 mi
10:00 PM70 °FClear.5 mph64%29.95 "Hg10 mi
9:00 PM72 °FClear.6 mph61%29.95 "Hg10 mi
8:00 PM72 °FClear.8 mph57%29.92 "Hg10 mi
7:00 PM73 °FClear.9 mph50%29.92 "Hg10 mi
Weather by CustomWeather, © 2015

See weather overviewHow to use our weather pages